[[{"header":{"parameterUnit":"m.s-1","parameterCategory":1,"la1":30.2991,"la2":30.254,"lo1":-89.0895,"lo2":-89.0444,"dy":0.0017,"dx":0.0017,"nx":28,"ny":28,"refTime":"2023-11-07T09:00:00:Z","depth":0,"parameterNumber":2,"parameterNumberName":"U-component_of_WINDS"},"data":[0,0,0,0,0,0,0,0,0,0,0,0,0,0,0,0,0,0,0,0,0,0,0,0,0,0,0,0,0,0,0,0,0,0,0,0,0,0,0,0,0,0,0,0,0,0,0,0,0,0,0,0,0,0,0,0,0,0,-0.0068,-0.0067,0,0.0015,0.0016,0.0017,0.003,0.0029,0.0028,0.0028,0.0114,0.0117,0.012,0,0,0,0,0,0,0,0,0,0,0,0,0,-0.0214,-0.0211,-0.0068,-0.0067,-0.0066,0.0015,0.0016,0.0017,0.003,0.0029,0.0028,0.0027,0.0113,0.0117,0.0121,0,0,0,0,0,0,0,0,0,0,0,0,0,-0.0143,-0.021,-0.0068,-0.005,-0.0047,0.0015,0.0016,0.0018,0.003,0.0029,0.0028,0.0027,0.0112,0.0117,0.0121,0.0171,0,0,0.0135,0.0137,0,0,0,0,0,0,0,0,-0.0147,-0.0137,-0.0054,-0.0051,-0.0048,0.0011,-0.0003,0.0069,0.003,0.0001,0.0028,0.0026,0.0081,0.0088,0.0106,0.0175,0.0179,0.0135,0.0138,0.014,0.0141,0,0,0,0,0,0,0,-0.0152,-0.0141,-0.0035,-0.0052,-0.0049,-0.0045,-0.0036,0.001,0.0046,0.0003,0.0004,0.0014,0.0082,0.0102,0.0108,0.018,0.0135,0.0139,0.0142,0.0144,0.0296,0.0297,0,0,0,0,0,0,-0.016,-0.0145,-0.0038,-0.0033,-0.0101,-0.0042,-0.0032,-0.0007,0.0046,0.0053,0.0015,0.0014,0.0095,0.0103,0.0111,0.0174,0.014,0.0144,0.0147,0.0295,0.0296,0.0298,0,0,0,0,0,0,-0.0163,-0.0151,-0.0041,-0.0088,-0.0074,-0.0038,-0.001,-0.0005,0.0015,0.0054,0.0061,0.0028,0.0094,0.0105,0.0156,0.0178,0.0146,0.015,0.0293,0.0295,0.0297,0.03,0,0,0,0,0,0,-0.0168,-0.0152,-0.0133,-0.0088,-0.0072,0.0002,-0.0009,-0.0002,0.0022,0.0022,0.0069,0.0075,0.0094,0.015,0.0161,0.0183,0.0154,0.0292,0.0294,0.0297,0.0299,0.0302,0.0306,0,0,0,0,0,-0.0173,-0.0135,-0.0132,-0.0119,-0.0047,0.0003,0.0013,0.0033,0.0024,0.0044,0.0069,0.0074,0.0173,0.0155,0.0168,0.0192,0.029,0.0293,0.0296,0.0297,0.0302,0.0305,0,0,0,0,0,0,-0.0178,-0.0129,-0.0125,-0.0072,-0.0039,0.0005,0.0031,0.0037,0.0074,0.0073,0.0097,0.0107,0.0158,0.018,0.0158,0.0244,0.0231,0.0237,0.0227,0.0232,0.0235,0.0229,0.0157,0,0,0,0,0,-0.0174,-0.0137,-0.0096,-0.0053,-0.0036,-0.0006,0.0017,0.003,0.0066,0.008,0.0109,0.0144,0.0183,0.0209,0.0247,0.0302,0.0313,0.0325,0.0328,0.0331,0.0336,0.0367,0.0373,0.0308,0.0308,0.0308,0,0,-0.0163,-0.0131,-0.011,-0.0053,-0.0026,0.0012,0.0006,0.0046,0.0075,0.0086,0.0137,0.0159,0.02,0.0254,0.0279,0.0274,0.0356,0.0335,0.0336,0.034,0.0371,0.0377,0.0382,0.031,0.031,0.0309,0,0,-0.0124,-0.0097,-0.0058,-0.003,0.0011,0.0031,0.0041,0.0084,0.01,0.015,0.016,0.0195,0.0262,0.029,0.0314,0.0364,0.037,0.0376,0.0394,0.0425,0.043,0.0435,0.0453,0.046,0.0381,0.0381,0.0381,0,-0.0116,-0.0059,-0.0038,0.0002,0.0027,0.0038,0.0079,0.0105,0.0157,0.0174,0.0167,0.0252,0.028,0.0341,0.0353,0.0372,0.0384,0.0371,0.0427,0.0432,0.0437,0.0455,0.0462,0.0381,0.0381,0.0381,0.0381,0,-0.005,-0.0011,0.0016,0.0065,0.0094,0.0133,0.0161,0.0187,0.0197,0.0219,0.0271,0.0305,0.0351,0.0366,0.0377,0.0429,0.0425,0.0422,0.0411,0.0443,0.0461,0.0468,0.0382,0.0382,0.0382,0.0382,0,0,-0.0013,0.0048,0.0058,0.0081,0.0128,0.0159,0.02,0.0244,0.0267,0.0302,0.0338,0.0394,0.0393,0.0419,0.0433,0.046,0.0499,0.0455,0.0456,0.0462,0.0559,0.0561,0.0569,0.0503,0.0504,0.0505,0.0556,0,0.0032,0.0105,0.0125,0.0187,0.0224,0.0236,0.0272,0.0305,0.0326,0.0361,0.0385,0.0425,0.0419,0.0436,0.0462,0.0488,0.0519,0.0485,0.0537,0.0538,0.0527,0.0578,0.058,0.0626,0.0563,0.0564,0.0565,0,0.0094,0.0131,0.0197,0.0239,0.0256,0.0288,0.0331,0.0364,0.0402,0.0415,0.0445,0.0457,0.0501,0.0486,0.0548,0.0524,0.0547,0.0563,0.0565,0.0571,0.0554,0.0586,0.0641,0.0648,0.0576,0.0575,0.0574,0,0.0116,0.0182,0.023,0.0249,0.03,0.0323,0.0345,0.0382,0.0407,0.0445,0.0462,0.0504,0.0528,0.056,0.0584,0.0571,0.0643,0.063,0.0657,0.0656,0.0672,0.0671,0.0732,0.0685,0.0685,0.0685,0.0685,0,0.0164,0.0204,0.0241,0.027,0.0316,0.0339,0.0383,0.0406,0.0439,0.0474,0.0487,0.0519,0.0547,0.0584,0.0602,0.0651,0.0661,0.0674,0.0678,0.0673,0.0672,0.0689,0.0686,0.0687,0.0686,0.0686,0.0686,0,0.0196,0.0222,0.0276,0.032,0.0332,0.0363,0.0401,0.0431,0.0453,0.0497,0.0508,0.0542,0.0586,0.0612,0.0668,0.068,0.0734,0.0737,0.0721,0.0723,0.0748,0.0745,0.0823,0.0835,0.0779,0.078,0.078,0,0.0226,0.0257,0.0305,0.0329,0.0351,0.039,0.0416,0.044,0.0468,0.0514,0.0538,0.0582,0.0619,0.0689,0.0719,0.0761,0.0766,0.079,0.0772,0.0766,0.0767,0.0765,0.0769,0.0793,0.0794,0.0794,0.0794,0,0.0276,0.0287,0.0325,0.0367,0.0398,0.0432,0.0467,0.0486,0.0516,0.0546,0.0591,0.0619,0.0676,0.072,0.0765,0.0789,0.0797,0.08,0.0808,0.0803,0.0793,0.0799,0.073,0.0798,0.0797,0.0797,0.0797,0.0797,0.0308,0.0336,0.0375,0.0416,0.0445,0.0476,0.0507,0.0532,0.057,0.0618,0.063,0.0677,0.0715,0.0777,0.0801,0.0839,0.0835,0.0847,0.085,0.0853,0.0854,0.0786,0.0847,0.0847,0.0847,0.0847,0.0847,0,0.0359,0.0384,0.0422,0.047,0.0503,0.0507,0.0546,0.0573,0.0614,0.0649,0.0685,0.0737,0.078,0.0814,0.0858,0.0882,0.0887,0.0893,0.0892,0.0897,0.0855,0.0843,0.0888,0.0888,0.0888,0.0888,0.0888,0.0888,0.0389,0.0438,0.0454,0.0518,0.0543,0.0589,0.0611,0.064,0.0668,0.0726,0.0762,0.0783,0.0818,0.0865,0.0905,0.0914,0.093,0.0935,0.0945,0.0904,0.09,0.0896,0.0885,0.0938,0.0938,0.0984,0.0985,0.0985]},{"header":{"parameterUnit":"m.s-1","parameterCategory":1,"la1":30.2991,"la2":30.254,"lo1":-89.0895,"lo2":-89.0444,"dy":0.0017,"dx":0.0017,"nx":28,"ny":28,"refTime":"2023-11-07T09:00:00:Z","depth":0,"parameterNumber":3,"parameterNumberName":"V-component_of_WINDS"},"data":[0,0,0,0,0,0,0,0,0,0,0,0,0,0,0,0,0,0,0,0,0,0,0,0,0,0,0,0,0,0,0,0,0,0,0,0,0,0,0,0,0,0,0,0,0,0,0,0,0,0,0,0,0,0,0,0,0,0,3.188,3.188,0,3.1917,3.1917,3.1917,3.186,3.1857,3.1856,3.1854,3.1891,3.1893,3.1896,0,0,0,0,0,0,0,0,0,0,0,0,0,3.1758,3.176,3.188,3.188,3.1881,3.1917,3.1917,3.1918,3.186,3.1857,3.1855,3.1853,3.189,3.1893,3.1896,0,0,0,0,0,0,0,0,0,0,0,0,0,3.1804,3.1761,3.188,3.1856,3.1854,3.1917,3.1917,3.1918,3.186,3.1857,3.1854,3.1852,3.1889,3.1893,3.1897,3.1983,0,0,3.191,3.1912,0,0,0,0,0,0,0,0,3.1802,3.1809,3.1859,3.1858,3.1856,3.188,3.1888,3.194,3.1861,3.1858,3.1854,3.185,3.189,3.1894,3.1907,3.1985,3.1987,3.191,3.1913,3.1915,3.1916,0,0,0,0,0,0,0,3.1799,3.1807,3.1894,3.186,3.1858,3.1843,3.1847,3.1897,3.189,3.1858,3.1854,3.1859,3.1888,3.1903,3.1908,3.1987,3.191,3.1914,3.1917,3.1918,3.2139,3.2142,0,0,0,0,0,0,3.1799,3.1805,3.1893,3.1895,3.1821,3.1848,3.1852,3.1876,3.1889,3.1889,3.1862,3.1856,3.1897,3.1903,3.1909,3.2012,3.1915,3.1919,3.1921,3.2136,3.214,3.2143,0,0,0,0,0,0,3.1796,3.1807,3.1892,3.1849,3.1859,3.1853,3.1881,3.1878,3.1893,3.1892,3.1891,3.1878,3.1895,3.1903,3.1966,3.2012,3.1921,3.1925,3.2132,3.2137,3.2142,3.2218,0,0,0,0,0,0,3.1793,3.1806,3.1839,3.185,3.1861,3.1948,3.1883,3.1881,3.19,3.1894,3.1907,3.1907,3.1893,3.1959,3.197,3.2016,3.1928,3.2128,3.2134,3.214,3.2211,3.2225,3.2236,0,0,0,0,0,3.1789,3.1859,3.1841,3.1852,3.1902,3.1951,3.1957,3.1941,3.1904,3.1938,3.1937,3.1906,3.2005,3.1966,3.1978,3.2026,3.2125,3.2132,3.2139,3.2205,3.2222,3.2236,0,0,0,0,0,0,3.1853,3.186,3.1841,3.1916,3.1934,3.1941,3.1982,3.1959,3.1986,3.1979,3.1957,3.196,3.2028,3.2033,3.199,3.2111,3.2059,3.2069,3.2105,3.2121,3.2133,3.2131,3.1932,0,0,0,0,0,3.1876,3.1916,3.1919,3.1986,3.1996,3.1988,3.2008,3.1994,3.2011,3.2018,3.2022,3.2039,3.2074,3.2098,3.213,3.2211,3.2214,3.225,3.2263,3.2273,3.2282,3.2327,3.2343,3.2168,3.2168,3.2167,0,0,3.1924,3.1933,3.1959,3.1999,3.2011,3.2052,3.1994,3.204,3.207,3.2024,3.2085,3.2088,3.2106,3.2179,3.2212,3.2186,3.2331,3.2283,3.2291,3.2294,3.2336,3.2353,3.2368,3.2173,3.2172,3.2171,0,0,3.2033,3.2043,3.21,3.2113,3.2132,3.2127,3.2141,3.2152,3.2153,3.2213,3.218,3.2215,3.2276,3.229,3.2305,3.2421,3.2394,3.2431,3.2498,3.2541,3.2555,3.2567,3.2609,3.2625,3.244,3.2441,3.2441,0,3.209,3.2151,3.2132,3.2181,3.22,3.2161,3.2219,3.2232,3.226,3.2274,3.2245,3.232,3.233,3.2406,3.2434,3.2447,3.2463,3.243,3.2555,3.2567,3.2578,3.2618,3.2633,3.2445,3.2445,3.2444,3.2444,0,3.2221,3.2264,3.2308,3.2337,3.2361,3.2414,3.2403,3.2429,3.2413,3.241,3.2472,3.2482,3.2516,3.2533,3.2517,3.2607,3.2591,3.2558,3.2506,3.26,3.2637,3.2652,3.2452,3.245,3.2449,3.2448,0,0,3.2371,3.239,3.2406,3.242,3.2438,3.2471,3.2522,3.2556,3.2579,3.26,3.2642,3.2695,3.2665,3.2683,3.2668,3.2707,3.2798,3.267,3.267,3.2694,3.2899,3.2924,3.2942,3.278,3.2783,3.2785,3.2898,0,3.248,3.2569,3.2554,3.2641,3.2681,3.2645,3.2689,3.2706,3.2705,3.2738,3.2737,3.2775,3.2733,3.2743,3.2779,3.278,3.2839,3.2771,3.282,3.2822,3.2818,3.2961,3.2987,3.3093,3.2912,3.2915,3.2917,0,3.2619,3.2646,3.2737,3.275,3.2766,3.2807,3.2837,3.287,3.2887,3.2884,3.2904,3.2883,3.2934,3.288,3.2951,3.2905,3.2924,3.2927,3.2931,3.2935,3.2876,3.2971,3.3127,3.3143,3.2939,3.2937,3.2936,0,3.2721,3.278,3.2842,3.2854,3.2871,3.2901,3.2909,3.2923,3.2945,3.2971,3.2985,3.3016,3.3034,3.3059,3.3046,3.3008,3.312,3.3065,3.3119,3.3119,3.3144,3.3143,3.3307,3.3155,3.3155,3.3155,3.3155,0,3.2844,3.2902,3.2888,3.2927,3.299,3.2972,3.3035,3.3039,3.3052,3.3091,3.3061,3.3097,3.3079,3.3114,3.3105,3.3165,3.3173,3.3172,3.3169,3.3175,3.3176,3.3188,3.3181,3.3159,3.3158,3.3157,3.3157,0,3.2969,3.2962,3.3028,3.3038,3.3042,3.3089,3.3097,3.3133,3.3131,3.318,3.319,3.3186,3.3226,3.3216,3.326,3.3253,3.333,3.3317,3.3324,3.3322,3.3377,3.3372,3.3555,3.3578,3.3411,3.3413,3.3414,0,3.3048,3.3092,3.3108,3.3132,3.3143,3.3181,3.3204,3.3188,3.3212,3.3236,3.3269,3.3307,3.3336,3.3402,3.3402,3.3436,3.3424,3.3486,3.3429,3.3434,3.3426,3.3424,3.3429,3.3497,3.3499,3.3501,3.3502,0,3.3191,3.3186,3.3219,3.3252,3.328,3.3305,3.3327,3.3348,3.3333,3.3362,3.3403,3.3426,3.3471,3.3509,3.354,3.3548,3.3523,3.352,3.3534,3.3542,3.3544,3.3545,3.3356,3.3516,3.3515,3.3514,3.3513,3.3512,3.3296,3.3333,3.3351,3.3389,3.3405,3.3426,3.3461,3.3463,3.3497,3.3533,3.3521,3.3568,3.3585,3.3624,3.3636,3.3673,3.365,3.367,3.3676,3.3681,3.3689,3.3538,3.3678,3.3678,3.3677,3.3677,3.3677,0,3.3438,3.3448,3.3483,3.3516,3.3546,3.352,3.3544,3.3571,3.3613,3.3631,3.3661,3.3709,3.3746,3.3749,3.3784,3.3813,3.3802,3.3823,3.3821,3.3823,3.3707,3.3691,3.3831,3.3831,3.3831,3.3831,3.3831,3.3831,3.3515,3.3578,3.3575,3.3644,3.3653,3.37,3.3716,3.3736,3.375,3.3805,3.3836,3.3838,3.3851,3.3887,3.3919,3.3919,3.3934,3.3959,3.3955,3.3846,3.3831,3.3817,3.3802,3.3962,3.3962,3.4068,3.4069,3.407]}]]